Regional Weather Roundup
Issued by NWS Midland/Odessa, TX

Home | Current Version | Previous Version | Text Only | Print | Product List | Glossary On
Versions: 1 2 3 4 5 6 7 8 9 10 11 12 13 14 15 16 17 18 19 20 21 22 23 24 25 26 27 28 29 30 31 32 33 34 35 36 37 38 39 40 41 42 43 44 45 46 47 48 49 50
000
ASUS44 KMAF 030401
RWRMAF
MIDLAND AREA WEATHER ROUNDUP
NATIONAL WEATHER SERVICE MIDLAND TX
1100 PM CDT MON MAY 02 2016

...IN SOUTHWEST TEXAS AND SOUTHEAST NEW MEXICO...

CITY           SKY/WX    TMP DP  RH WIND       PRES   REMARKS
ALPINE         CLEAR     50  33  52 CALM      30.22R
ANDREWS        FAIR      56  34  42 CALM      30.15R
ARTESIA        CLEAR     54  32  43 SW10      30.14R
BIG SPRING     CLEAR     55  38  53 E6        30.16S
CARLSBAD       CLEAR     51  31  46 SW8       30.12R
DRYDEN           N/A     62  42  47 E6        30.10R
FORT STOCKTON  CLEAR     59  39  47 SE6       30.13R
GUAD PASS      NOT AVBL
HOBBS          CLEAR     50  32  50 SE7       30.16R
MARFA          CLEAR     48  34  58 N8        30.18R
MIDLAND AIRPK  CLEAR     62  38  40 SE9       30.14S
MIDLAND INTL   CLEAR     59  39  47 SE9       30.14R
ODESSA         CLEAR     60  36  40 E9        30.14R
PECOS          CLEAR     59  35  40 SE5       30.12R
PRESIDIO       FAIR      67  39  35 E8        30.08R
SEMINOLE       CLEAR     55  33  44 CALM      30.16R
SNYDER           N/A     55  40  56 E6        30.15S
WINK           CLEAR     58  35  42 E5        30.11R
$$
...OTHER STATIONS IN TEXAS...

CITY           SKY/WX    TMP DP  RH WIND       PRES   REMARKS
ABILENE        CLEAR     53  47  79 SE5       30.15R
AMARILLO       CLEAR     47  38  71 SE7       30.15S
AUSTIN         MOCLDY    58  52  80 N6        30.11R
BROWNSVILLE    CLOUDY    72  60  66 N9        30.04R
CORPUS CHRISTI CLOUDY    67  54  63 N12       30.06R
DALLAS FTW     CLEAR     56  46  69 NE3       30.12R
DEL RIO        CLEAR     61  52  72 E7        30.10S
EL PASO        CLEAR     64  30  27 E6        30.10R
HOUSTON INT    PTCLDY    62  57  83 N10       30.05R
LUBBOCK        CLEAR     53  32  44 E8        30.14R
SAN ANGELO     CLEAR     53  46  77 SE6       30.14R
SAN ANTONIO    MOCLDY    59  51  75 N7        30.11R
WACO           CLEAR     56  51  84 N6        30.12R
WICHITA FALLS  NOT AVBL
$$
...OTHER LOCATIONS IN NEW MEXICO...

CITY           SKY/WX    TMP DP  RH WIND       PRES   REMARKS
ALAMAGORDO     CLEAR     55  27  33 NE7       30.13R
ALBUQUERQUE    CLOUDY    59  30  33 SW9       30.18R
CANNON AFB     CLEAR     51  34  51 SE2       30.16R
CLOVIS         CLEAR     50  34  53 E5        30.17S
HOLLOMAN AFB   CLEAR     58  27  30 E8        30.11R
ROSWELL        CLEAR     53  32  44 W6        30.13R
RUIDOSO          N/A     45  32  61 SE6       30.25R
SANTA FE       CLOUDY    51  29  42 CALM      30.19R
TRUTH OR CONSE CLEAR     60  26  27 SE7       30.12R
TUCUMCARI      CLEAR     49  39  68 E6        30.12R
$$




USA.gov is the U.S. government's official web portal to all federal, state and local government web resources and services.